Content
SEND FEEDBACK

Daily
Averages
Monthly
Summary
Philippines

QUEZON CITY, PHILIPPINES


Home > Asia > Philippines
Elevation: 46 meters     Latitude: 14 39N     Longitude: 121 03E

WEATHER
 
SELECT A DAY
Number of Records: 172,421;   Date Range: 7/1/96 - 7/23/14
 
SHARE

PRINT THIS DATA

[ ← Previous Day ]
WEATHER ALMANAC - 15 FEBRUARY, 2013
[ Next Day → ]
[ °F ]   °C
Weather ElementAverageHighLow
Temperature27.1 °C31 °C (3:00 pm)24 °C (1:00 am)
Dewpoint22.9 °C24 °C (2:00 am)20.6 °C (11:00 pm)
Humidity77.5 %100 % (2:00 am)59 % (2:00 pm)
Barometer1011.5 hPa1014.2 hPa (9:00 am)1009.1 hPa (3:00 pm)
Wind Speed11.7 km/h25.9 km/h (3:00 pm)
Weather ElementAverage
Visibility9.8 km
Wind DirectionESE (106.7 °)

Weather ElementTotal
Precipitation---
Cooling Degree Days9.2 (Base 18.3)
Growing Degree Days17.5 (Base 10)
Averaged from 30 records on 15 February, 2013
WEATHER CONDITIONS BREAKOUT
WIND DIRECTION BREAKOUT
WEATHER BY HOUR - 15 FEBRUARY, 2013
[ °F ]   °C
Local TimeTemperatureDewpointHumidityBarometerVisibilityWind DirectionWind SpeedGust SpeedPrecipitationEventsConditions
1:00 AM24 °C23 °C94 %1012.2 hPa9 kmSSE (160°)7.4 km/hRainLight Rain
2:00 AM24.4 °C23.3 °C94 %1011.9 hPa9.7 kmENE (60°)7.2 km/hOvercast
2:00 AM24 °C24 °C100 %1012.2 hPa10 kmENE (60°)7.4 km/hMostly Cloudy
3:00 AM24 °C24 °C100 %1011.2 hPa10 kmNNW (340°)9.3 km/hRainLight Rain
4:00 AM24 °C24 °C100 %1011.2 hPa10 kmCalmMostly Cloudy
5:00 AM24.4 °C23.3 °C92 %1011.9 hPa9.7 kmNW (310°)3.5 km/hHaze
5:00 AM25 °C23 °C89 %1012.2 hPa10 kmVariable1.9 km/hMostly Cloudy
6:00 AM25 °C23 °C89 %1012.2 hPa10 kmVariable7.4 km/hScattered Clouds
7:00 AM25 °C23 °C89 %1013.2 hPa9 kmNorth (360°)9.3 km/hMostly Cloudy
8:00 AM26 °C23 °C83 %1013.2 hPa9 kmNNE (30°)13 km/hMostly Cloudy
9:00 AM26 °C23 °C83 %1014.2 hPa9 kmNNE (30°)13 km/hMostly Cloudy
10:00 AM28 °C23 °C74 %1013.2 hPa10 kmENE (60°)5.6 km/hScattered Clouds
11:00 AM28.9 °C22.8 °C62 %1013.2 hPa9.7 kmNNE (30°)7.2 km/hHaze
11:00 AM29 °C23 °C70 %1013.2 hPa10 kmNNE (30°)5.6 km/hScattered Clouds
12:00 PM30 °C23 °C66 %1012.2 hPa10 kmESE (110°)11.1 km/hScattered Clouds
1:00 PM30 °C23 °C66 %1011.2 hPa10 kmESE (110°)14.8 km/hScattered Clouds
2:00 PM30 °C23.3 °C59 %1010.2 hPa9.7 kmESE (110°)18 km/hHaze
2:00 PM30 °C23 °C66 %1010.2 hPa10 kmESE (110°)20.4 km/hScattered Clouds
3:00 PM31 °C23 °C62 %1009.1 hPa10 kmESE (110°)25.9 km/hMostly Cloudy
4:00 PM30 °C23 °C66 %1009.1 hPa10 kmEast (100°)11.1 km/hScattered Clouds
5:00 PM29.4 °C23.3 °C63 %1009.5 hPa9.7 kmEast (100°)18 km/hPartly Cloudy
5:00 PM29 °C23 °C70 %1009.1 hPa10 kmEast (100°)18.5 km/hScattered Clouds
6:00 PM28 °C23 °C74 %1010.2 hPa10 kmEast (100°)22.2 km/hScattered Clouds
7:00 PM28 °C23 °C74 %1011.2 hPa10 kmESE (110°)11.1 km/hScattered Clouds
8:00 PM27.2 °C22.8 °C70 %1011.9 hPa9.7 kmESE (110°)14.3 km/hHaze
8:00 PM27 °C23 °C79 %1011.2 hPa10 kmESE (110°)14.8 km/hPartly Cloudy
9:00 PM27 °C22 °C74 %1012.2 hPa10 kmESE (110°)18.5 km/hPartly Cloudy
10:00 PM26 °C22 °C78 %1012.2 hPa10 kmEast (100°)3.7 km/hPartly Cloudy
11:00 PM26.1 °C20.6 °C65 %1012.2 hPa9.7 kmESE (120°)18 km/hHaze
11:00 PM26 °C21 °C74 %1012.2 hPa10 kmESE (120°)14.8 km/hPartly Cloudy
Hourly data recorded from RPLL, located 0 kilometers away from Quezon City, Philippines







STORIES FROM OUR PARTNERS